Вернуться в каталог

COSMOS 1275 DEB

АктивенPO
NORAD 13484·DEBRIS·🇷🇺 Russia

Запущен Jun 4, 1981 с Plesetsk Cosmodrome

Loading…

Ближайшие Пролёты (ближайшие 24 часа)

TLE

СвежийSource: Space-Track

Эпоха: Sep 13, 2026, 12:26 UTC

1 13484U 81053GE  26256.51819082  .00000922  00000-0  57937-3 0  9999
2 13484  82.9150 279.3469 0030410  95.1403  25.2092 14.03173705238236

Отслеживайте COSMOS 1275 DEB в реальном времени с AllMySat

Download on the App Store